,,,PA_Meas_PMT16A,,PR_Meas_QMR101_102,,RH_Meas_QMH101,,SR_Meas_QMS101,,TA_Meas_QMH101,,GenWind,,GenWind,
date,time,status,PA,status,PR,status,RH,status,SR,status,TA,status,DirAvg,status,SpdAvg,
2010-09-02, 00:00:04,VALID,1010.01,VALID,0,VALID,102.681,VALID,0.105969,VALID,23.7507,VALID,56,VALID,1.1332,
2010-09-02, 00:01:04,VALID,1009.99,VALID,0,VALID,102.696,VALID,0.105969,VALID,23.7312,VALID,73,VALID,0.872266,
2010-09-02, 00:02:04,VALID,1009.98,VALID,0,VALID,102.719,VALID,0,VALID,23.7312,VALID,79,VALID,0.353516,
2010-09-02, 00:03:04,VALID,1009.94,VALID,0,VALID,102.772,VALID,0,VALID,23.7525,VALID,56,VALID,0.225,
2010-09-02, 00:04:04,VALID,1009.94,VALID,0,VALID,102.788,VALID,0,VALID,23.733,VALID,73,VALID,0.433203,
2010-09-02, 00:05:04,VALID,1009.93,VALID,0,VALID,102.818,VALID,0.105969,VALID,23.7525,VALID,80,VALID,0.546875,
2010-09-02, 00:06:04,VALID,1009.92,VALID,0,VALID,102.826,VALID,0,VALID,23.7117,VALID,89,VALID,0.279687,
2010-09-02, 00:07:04,VALID,1009.89,VALID,0,VALID,102.841,VALID,0,VALID,23.7135,VALID,61,VALID,0.600391,
2010-09-02, 00:08:04,VALID,1009.87,VALID,0,VALID,102.818,VALID,0.105969,VALID,23.6922,VALID,51,VALID,0.536328,
2010-09-02, 00:09:04,VALID,1009.84,VALID,0,VALID,102.826,VALID,0,VALID,23.694,VALID,44,VALID,0.351563,
2010-09-02, 00:10:04,VALID,1009.83,VALID,0,VALID,102.871,VALID,0.105969,VALID,23.6727,VALID,63,VALID,0.424219,
2010-09-02, 00:11:04,VALID,1009.81,VALID,0,VALID,102.917,VALID,0,VALID,23.6745,VALID,62,VALID,0.36875,
2010-09-02, 00:12:04,VALID,1009.8,VALID,0,VALID,102.925,VALID,0.105969,VALID,23.6532,VALID,72,VALID,0.573828,
2010-09-02, 00:13:04,VALID,1009.79,VALID,0,VALID,102.948,VALID,0,VALID,23.6745,VALID,43,VALID,0.498828,
2010-09-02, 00:14:04,VALID,1009.78,VALID,0,VALID,102.986,VALID,0.105969,VALID,23.6745,VALID,84,VALID,0.3375,
2010-09-02, 00:15:04,VALID,1009.79,VALID,0,VALID,103.009,VALID,0.105969,VALID,23.6745,VALID,84,VALID,0.00117188,
2010-09-02, 00:16:04,VALID,1009.76,VALID,0,VALID,103.024,VALID,0.105969,VALID,23.6532,VALID,63,VALID,0.93125,
2010-09-02, 00:17:04,VALID,1009.75,VALID,0,VALID,103.039,VALID,0.105969,VALID,23.6532,VALID,40,VALID,0.392578,
2010-09-02, 00:18:04,VALID,1009.75,VALID,0,VALID,103.039,VALID,0,VALID,23.6338,VALID,82,VALID,0.733984,
2010-09-02, 00:19:04,VALID,1009.73,VALID,0,VALID,103.054,VALID,0.105969,VALID,23.6532,VALID,89,VALID,0.641797,
2010-09-02, 00:20:04,VALID,1009.71,VALID,0,VALID,103.054,VALID,0,VALID,23.655,VALID,71,VALID,0.952344,
2010-09-02, 00:21:04,VALID,1009.69,VALID,0,VALID,103.085,VALID,0.105969,VALID,23.6338,VALID,78,VALID,0.747266,
2010-09-02, 00:22:04,VALID,1009.67,VALID,0,VALID,103.1,VALID,0,VALID,23.655,VALID,46,VALID,0.428906,
2010-09-02, 00:23:04,VALID,1009.65,VALID,0,VALID,103.123,VALID,0.105969,VALID,23.6338,VALID,46,VALID,0.527344,
2010-09-02, 00:24:04,VALID,1009.63,VALID,0,VALID,103.131,VALID,0.105969,VALID,23.6356,VALID,67,VALID,0.480078,
2010-09-02, 00:25:04,VALID,1009.61,VALID,0,VALID,103.161,VALID,0.105969,VALID,23.6143,VALID,58,VALID,0.454297,
2010-09-02, 00:26:04,VALID,1009.62,VALID,0,VALID,103.169,VALID,0.105969,VALID,23.6143,VALID,70,VALID,0.671094,
2010-09-02, 00:27:04,VALID,1009.63,VALID,0,VALID,103.184,VALID,0.105969,VALID,23.6143,VALID,48,VALID,0.361719,
2010-09-02, 00:28:04,VALID,1009.6,VALID,0,VALID,103.184,VALID,0,VALID,23.6356,VALID,73,VALID,0.609766,
2010-09-02, 00:29:04,VALID,1009.61,VALID,0,VALID,103.207,VALID,0,VALID,23.5948,VALID,70,VALID,0.354297,
2010-09-02, 00:30:04,VALID,1009.63,VALID,0,VALID,103.192,VALID,0.105969,VALID,23.5948,VALID,72,VALID,0.606641,
2010-09-02, 00:31:04,VALID,1009.62,VALID,0,VALID,103.207,VALID,0.105969,VALID,23.6161,VALID,91,VALID,0.467578,
2010-09-02, 00:32:04,VALID,1009.64,VALID,0,VALID,103.215,VALID,0,VALID,23.6161,VALID,89,VALID,0.826172,
2010-09-02, 00:33:04,VALID,1009.65,VALID,0,VALID,103.253,VALID,0,VALID,23.6161,VALID,90,VALID,0.484375,
2010-09-02, 00:34:04,VALID,1009.66,VALID,0,VALID,103.245,VALID,0.105969,VALID,23.5948,VALID,70,VALID,0.163281,
2010-09-02, 00:35:04,VALID,1009.61,VALID,0,VALID,103.253,VALID,0.105969,VALID,23.5948,VALID,104,VALID,0.471484,
2010-09-02, 00:36:04,VALID,1009.62,VALID,0,VALID,103.268,VALID,0.105969,VALID,23.6143,VALID,106,VALID,0.237109,
2010-09-02, 00:37:04,VALID,1009.61,VALID,0,VALID,103.306,VALID,0.105969,VALID,23.6143,VALID,106,VALID,0.0738281,
2010-09-02, 00:38:04,VALID,1009.62,VALID,0,VALID,103.291,VALID,0.105969,VALID,23.6143,VALID,106,VALID,0.423438,
2010-09-02, 00:39:04,VALID,1009.63,VALID,0,VALID,103.283,VALID,0,VALID,23.6161,VALID,105,VALID,0.0808594,
2010-09-02, 00:40:04,VALID,1009.56,VALID,0,VALID,103.306,VALID,0.105969,VALID,23.6143,VALID,82,VALID,0.517969,
2010-09-02, 00:41:04,VALID,1009.61,VALID,0,VALID,103.283,VALID,0.105969,VALID,23.6356,VALID,67,VALID,0.596484,
2010-09-02, 00:42:04,VALID,1009.58,VALID,0,VALID,103.298,VALID,0.105969,VALID,23.6161,VALID,75,VALID,0.836328,
2010-09-02, 00:43:04,VALID,1009.52,VALID,0,VALID,103.298,VALID,0.105969,VALID,23.6143,VALID,93,VALID,0.344922,
2010-09-02, 00:44:04,VALID,1009.52,VALID,0,VALID,103.306,VALID,0.105969,VALID,23.6143,VALID,55,VALID,0.424219,
2010-09-02, 00:45:04,VALID,1009.47,VALID,0,VALID,103.306,VALID,0.105969,VALID,23.5948,VALID,56,VALID,0.228125,
2010-09-02, 00:46:04,VALID,1009.43,VALID,0,VALID,103.298,VALID,0.105969,VALID,23.5948,VALID,82,VALID,0.552734,
2010-09-02, 00:47:04,VALID,1009.42,VALID,0,VALID,103.321,VALID,0.105969,VALID,23.5753,VALID,59,VALID,0.479297,
2010-09-02, 00:48:04,VALID,1009.38,VALID,0,VALID,103.329,VALID,0.105969,VALID,23.5948,VALID,95,VALID,0.858203,
2010-09-02, 00:49:04,VALID,1009.35,VALID,0,VALID,103.329,VALID,0.105969,VALID,23.5753,VALID,26,VALID,0.405469,
2010-09-02, 00:50:04,VALID,1009.31,VALID,0,VALID,103.337,VALID,0.105969,VALID,23.5753,VALID,39,VALID,0.35,
2010-09-02, 00:51:04,VALID,1009.3,VALID,0,VALID,103.344,VALID,0,VALID,23.5771,VALID,39,VALID,0.292969,
2010-09-02, 00:52:04,VALID,1009.31,VALID,0,VALID,103.344,VALID,0,VALID,23.5576,VALID,39,VALID,0.186719,
2010-09-02, 00:53:04,VALID,1009.3,VALID,0,VALID,103.359,VALID,0,VALID,23.5771,VALID,40,VALID,0.429688,
2010-09-02, 00:54:04,VALID,1009.34,VALID,0,VALID,103.352,VALID,0,VALID,23.5576,VALID,43,VALID,0.502734,
2010-09-02, 00:55:04,VALID,1009.33,VALID,0,VALID,103.359,VALID,0,VALID,23.5576,VALID,49,VALID,0.294141,
2010-09-02, 00:56:04,VALID,1009.34,VALID,0,VALID,103.359,VALID,0,VALID,23.5771,VALID,87,VALID,0.720703,
2010-09-02, 00:57:04,VALID,1009.35,VALID,0,VALID,103.39,VALID,0,VALID,23.5771,VALID,105,VALID,0.471484,
2010-09-02, 00:58:04,VALID,1009.35,VALID,0,VALID,103.39,VALID,0,VALID,23.5771,VALID,105,VALID,0.602344,
2010-09-02, 00:59:04,VALID,1009.36,VALID,0,VALID,103.398,VALID,0,VALID,23.5576,VALID,105,VALID,0.670313,
2010-09-02, 01:00:04,VALID,1009.39,VALID,0,VALID,103.398,VALID,0,VALID,23.5576,VALID,63,VALID,0.342578,
2010-09-02, 01:01:04,VALID,1009.38,VALID,0,VALID,103.39,VALID,0,VALID,23.5576,VALID,63,VALID,0,
2010-09-02, 01:02:04,VALID,1009.37,VALID,0,VALID,103.398,VALID,0,VALID,23.5789,VALID,63,VALID,0,
2010-09-02, 01:03:04,VALID,1009.36,VALID,0,VALID,103.42,VALID,0,VALID,23.5576,VALID,63,VALID,0.0445312,
2010-09-02, 01:04:04,VALID,1009.35,VALID,0,VALID,103.413,VALID,0,VALID,23.5381,VALID,63,VALID,0.142969,
2010-09-02, 01:05:04,VALID,1009.37,VALID,0,VALID,103.42,VALID,0,VALID,23.5576,VALID,63,VALID,0.113281,
2010-09-02, 01:06:04,VALID,1009.34,VALID,0,VALID,103.39,VALID,0,VALID,23.5381,VALID,63,VALID,0.192969,
2010-09-02, 01:07:04,VALID,1009.35,VALID,0,VALID,103.42,VALID,0,VALID,23.5186,VALID,63,VALID,0.571875,
2010-09-02, 01:08:04,VALID,1009.35,VALID,0,VALID,103.398,VALID,0,VALID,23.5186,VALID,63,VALID,0.404687,
2010-09-02, 01:09:04,VALID,1009.33,VALID,0,VALID,103.42,VALID,0,VALID,23.5186,VALID,73,VALID,0.59375,
2010-09-02, 01:10:04,VALID,1009.31,VALID,0,VALID,103.413,VALID,0,VALID,23.5186,VALID,73,VALID,0.492578,
2010-09-02, 01:11:04,VALID,1009.3,VALID,0,VALID,103.42,VALID,0,VALID,23.5186,VALID,73,VALID,0.137109,
2010-09-02, 01:12:04,VALID,1009.32,VALID,0,VALID,103.428,VALID,0,VALID,23.4992,VALID,73,VALID,0,
2010-09-02, 01:13:04,VALID,1009.31,VALID,0,VALID,103.42,VALID,0,VALID,23.4992,VALID,73,VALID,0,
2010-09-02, 01:14:04,VALID,1009.31,VALID,0,VALID,103.428,VALID,0,VALID,23.4797,VALID,73,VALID,0,
2010-09-02, 01:15:04,VALID,1009.3,VALID,0,VALID,103.428,VALID,0,VALID,23.5009,VALID,73,VALID,0,
2010-09-02, 01:16:04,VALID,1009.28,VALID,0,VALID,103.443,VALID,0,VALID,23.4797,VALID,73,VALID,0,
2010-09-02, 01:17:04,VALID,1009.27,VALID,0,VALID,103.42,VALID,0,VALID,23.4797,VALID,73,VALID,0,
2010-09-02, 01:18:04,VALID,1009.24,VALID,0,VALID,103.436,VALID,0,VALID,23.4602,VALID,73,VALID,0,
2010-09-02, 01:19:04,VALID,1009.24,VALID,0,VALID,103.443,VALID,0,VALID,23.4407,VALID,73,VALID,0,
2010-09-02, 01:20:04,VALID,1009.27,VALID,0,VALID,103.436,VALID,0,VALID,23.4212,VALID,73,VALID,0,
2010-09-02, 01:21:04,VALID,1009.23,VALID,0,VALID,103.428,VALID,0,VALID,23.4194,VALID,73,VALID,0,
2010-09-02, 01:22:04,VALID,1009.2,VALID,0,VALID,103.459,VALID,0.105969,VALID,23.4,VALID,73,VALID,0,
2010-09-02, 01:23:04,VALID,1009.19,VALID,0,VALID,103.451,VALID,0.105969,VALID,23.4,VALID,73,VALID,0,
2010-09-02, 01:24:04,VALID,1009.18,VALID,0,VALID,103.466,VALID,0.105969,VALID,23.4,VALID,73,VALID,0,
2010-09-02, 01:25:04,VALID,1009.15,VALID,0,VALID,103.443,VALID,0.105969,VALID,23.4,VALID,73,VALID,0,
2010-09-02, 01:26:04,VALID,1009.14,VALID,0,VALID,103.451,VALID,0,VALID,23.3805,VALID,73,VALID,0,
2010-09-02, 01:27:04,VALID,1009.14,VALID,0,VALID,103.489,VALID,0.105969,VALID,23.361,VALID,73,VALID,0,
2010-09-02, 01:28:04,VALID,1009.1,VALID,0,VALID,103.466,VALID,0.105969,VALID,23.361,VALID,73,VALID,0,
2010-09-02, 01:29:04,VALID,1009.11,VALID,0,VALID,103.451,VALID,0,VALID,23.3415,VALID,73,VALID,0,
2010-09-02, 01:30:04,VALID,1009.1,VALID,0,VALID,103.459,VALID,0.105969,VALID,23.322,VALID,73,VALID,0,
2010-09-02, 01:31:04,VALID,1009.1,VALID,0,VALID,103.459,VALID,0.105969,VALID,23.3415,VALID,73,VALID,0,
2010-09-02, 01:32:04,VALID,1009.1,VALID,0,VALID,103.466,VALID,0.105969,VALID,23.3415,VALID,73,VALID,0,
2010-09-02, 01:33:04,VALID,1009.09,VALID,0,VALID,103.459,VALID,0.105969,VALID,23.3433,VALID,73,VALID,0,
2010-09-02, 01:34:04,VALID,1009.05,VALID,0,VALID,103.474,VALID,0,VALID,23.3433,VALID,73,VALID,0,
2010-09-02, 01:35:04,VALID,1009.07,VALID,0,VALID,103.474,VALID,0.105969,VALID,23.3415,VALID,73,VALID,0,
2010-09-02, 01:36:04,VALID,1009.1,VALID,0,VALID,103.451,VALID,0.105969,VALID,23.3415,VALID,73,VALID,0,
2010-09-02, 01:37:04,VALID,1009.08,VALID,0,VALID,103.459,VALID,0.105969,VALID,23.3415,VALID,125,VALID,0.444531,
2010-09-02, 01:38:04,VALID,1009.14,VALID,0,VALID,103.459,VALID,0.105969,VALID,23.3415,VALID,150,VALID,0.928516,
2010-09-02, 01:39:04,VALID,1009.28,VALID,0,VALID,103.466,VALID,0,VALID,23.3433,VALID,167,VALID,2.09453,
2010-09-02, 01:40:04,VALID,1009.33,VALID,0,VALID,103.436,VALID,0.105969,VALID,23.322,VALID,164,VALID,1.55703,
2010-09-02, 01:41:04,VALID,1009.3,VALID,0,VALID,103.436,VALID,0.105969,VALID,23.3628,VALID,162,VALID,0.907031,
2010-09-02, 01:42:04,VALID,1009.23,VALID,0,VALID,103.436,VALID,0.105969,VALID,23.3823,VALID,172,VALID,0.930859,
2010-09-02, 01:43:04,VALID,1009.15,VALID,0,VALID,103.428,VALID,0.105969,VALID,23.361,VALID,44,VALID,0.623828,
2010-09-02, 01:44:04,VALID,1009.15,VALID,0,VALID,103.428,VALID,0.105969,VALID,23.361,VALID,56,VALID,0.555078,
2010-09-02, 01:45:04,VALID,1009.17,VALID,0,VALID,103.436,VALID,0.105969,VALID,23.3805,VALID,56,VALID,0.520312,
2010-09-02, 01:46:04,VALID,1009.15,VALID,0,VALID,103.436,VALID,0.105969,VALID,23.3823,VALID,79,VALID,0.754687,
2010-09-02, 01:47:04,VALID,1009.12,VALID,0,VALID,103.436,VALID,0.105969,VALID,23.3805,VALID,76,VALID,0.577734,
2010-09-02, 01:48:04,VALID,1009.11,VALID,0,VALID,103.436,VALID,0,VALID,23.3805,VALID,103,VALID,0.623828,
2010-09-02, 01:49:04,VALID,1009.09,VALID,0,VALID,103.451,VALID,0.105969,VALID,23.3805,VALID,105,VALID,0.971094,
2010-09-02, 01:50:04,VALID,1009.11,VALID,0,VALID,103.459,VALID,0.105969,VALID,23.3805,VALID,118,VALID,1.04102,
2010-09-02, 01:51:04,VALID,1009.08,VALID,0,VALID,103.459,VALID,0,VALID,23.3823,VALID,123,VALID,0.919922,
2010-09-02, 01:52:04,VALID,1009.06,VALID,0,VALID,103.451,VALID,0,VALID,23.3823,VALID,142,VALID,1.07813,
2010-09-02, 01:53:04,VALID,1009.02,VALID,0,VALID,103.489,VALID,0,VALID,23.384,VALID,135,VALID,0.924219,
2010-09-02, 01:54:04,VALID,1008.95,VALID,0,VALID,103.481,VALID,0,VALID,23.384,VALID,103,VALID,1.07266,
2010-09-02, 01:55:04,VALID,1008.92,VALID,0,VALID,103.497,VALID,0,VALID,23.3433,VALID,104,VALID,0.726172,
2010-09-02, 01:56:04,VALID,1008.96,VALID,0,VALID,103.504,VALID,0,VALID,23.3433,VALID,113,VALID,0.914453,
2010-09-02, 01:57:04,VALID,1008.94,VALID,0,VALID,103.474,VALID,0,VALID,23.3645,VALID,127,VALID,0.689453,
2010-09-02, 01:58:04,VALID,1008.96,VALID,0,VALID,103.497,VALID,0,VALID,23.3433,VALID,140,VALID,0.590625,
2010-09-02, 01:59:04,VALID,1008.96,VALID,0,VALID,103.489,VALID,0,VALID,23.3433,VALID,136,VALID,1.30625,
2010-09-02, 02:00:04,VALID,1008.96,VALID,0,VALID,103.512,VALID,0,VALID,23.3238,VALID,133,VALID,1.2832,
2010-09-02, 02:01:04,VALID,1008.97,VALID,0,VALID,103.489,VALID,0,VALID,23.3645,VALID,132,VALID,0.826563,
2010-09-02, 02:02:04,VALID,1008.99,VALID,0,VALID,103.504,VALID,0,VALID,23.3645,VALID,130,VALID,1.14023,
2010-09-02, 02:03:04,VALID,1009,VALID,0,VALID,103.504,VALID,0,VALID,23.3433,VALID,159,VALID,0.828906,
2010-09-02, 02:04:04,VALID,1009.01,VALID,0,VALID,103.512,VALID,0,VALID,23.3451,VALID,134,VALID,0.858203,
2010-09-02, 02:05:04,VALID,1008.97,VALID,0,VALID,103.504,VALID,0,VALID,23.3451,VALID,139,VALID,0.909766,
2010-09-02, 02:06:04,VALID,1008.97,VALID,0,VALID,103.497,VALID,0,VALID,23.3451,VALID,127,VALID,0.735937,
2010-09-02, 02:07:04,VALID,1008.96,VALID,0,VALID,103.504,VALID,0,VALID,23.3451,VALID,115,VALID,0.530078,
2010-09-02, 02:08:04,VALID,1009,VALID,0,VALID,103.497,VALID,0,VALID,23.3238,VALID,148,VALID,0.770312,
2010-09-02, 02:09:04,VALID,1008.98,VALID,0,VALID,103.497,VALID,0,VALID,23.3238,VALID,141,VALID,0.56875,
2010-09-02, 02:10:04,VALID,1009,VALID,0,VALID,103.489,VALID,0,VALID,23.3256,VALID,169,VALID,1.22461,
2010-09-02, 02:11:04,VALID,1008.99,VALID,0,VALID,103.489,VALID,0,VALID,23.3256,VALID,150,VALID,0.50625,
2010-09-02, 02:12:04,VALID,1008.98,VALID,0,VALID,103.512,VALID,0,VALID,23.3256,VALID,144,VALID,0.395312,
2010-09-02, 02:13:04,VALID,1008.95,VALID,0,VALID,103.489,VALID,0,VALID,23.3256,VALID,120,VALID,0.270703,
2010-09-02, 02:14:04,VALID,1008.95,VALID,0,VALID,103.489,VALID,0,VALID,23.3256,VALID,120,VALID,0,
2010-09-02, 02:15:04,VALID,1008.97,VALID,0,VALID,103.489,VALID,0,VALID,23.3238,VALID,120,VALID,0,
2010-09-02, 02:16:04,VALID,1009,VALID,0,VALID,103.497,VALID,0,VALID,23.3238,VALID,120,VALID,0,
2010-09-02, 02:17:04,VALID,1009,VALID,0,VALID,103.474,VALID,0,VALID,23.3238,VALID,120,VALID,0,
2010-09-02, 02:18:04,VALID,1008.99,VALID,0,VALID,103.481,VALID,0,VALID,23.3433,VALID,120,VALID,0,
2010-09-02, 02:19:04,VALID,1008.96,VALID,0,VALID,103.497,VALID,0,VALID,23.3451,VALID,120,VALID,0,
2010-09-02, 02:20:04,VALID,1008.95,VALID,0,VALID,103.474,VALID,0,VALID,23.3433,VALID,120,VALID,0,
2010-09-02, 02:21:04,VALID,1008.92,VALID,0,VALID,103.481,VALID,0.105969,VALID,23.361,VALID,120,VALID,0,
2010-09-02, 02:22:04,VALID,1008.95,VALID,0,VALID,103.481,VALID,0.105969,VALID,23.361,VALID,120,VALID,0.241016,
2010-09-02, 02:23:04,VALID,1008.96,VALID,0,VALID,103.459,VALID,0,VALID,23.361,VALID,150,VALID,0.499219,
2010-09-02, 02:24:04,VALID,1008.94,VALID,0,VALID,103.489,VALID,0.105969,VALID,23.361,VALID,150,VALID,0.414063,
2010-09-02, 02:25:04,VALID,1008.93,VALID,0,VALID,103.474,VALID,0,VALID,23.3805,VALID,149,VALID,0.196484,
2010-09-02, 02:26:04,VALID,1008.95,VALID,0,VALID,103.481,VALID,0,VALID,23.3823,VALID,128,VALID,0.311719,
2010-09-02, 02:27:04,VALID,1008.98,VALID,0,VALID,103.481,VALID,0,VALID,23.4017,VALID,129,VALID,1.05234,
2010-09-02, 02:28:04,VALID,1008.95,VALID,0,VALID,103.489,VALID,0,VALID,23.4212,VALID,126,VALID,0.595312,
2010-09-02, 02:29:04,VALID,1008.94,VALID,0,VALID,103.481,VALID,0,VALID,23.4,VALID,132,VALID,0.347266,
2010-09-02, 02:30:04,VALID,1008.94,VALID,0,VALID,103.489,VALID,0,VALID,23.4212,VALID,114,VALID,0.582812,
2010-09-02, 02:31:04,VALID,1008.95,VALID,0,VALID,103.489,VALID,0,VALID,23.4212,VALID,140,VALID,1.30625,
2010-09-02, 02:32:04,VALID,1008.97,VALID,0,VALID,103.504,VALID,0,VALID,23.4212,VALID,143,VALID,0.842578,
2010-09-02, 02:33:04,VALID,1009,VALID,0,VALID,103.504,VALID,0.105969,VALID,23.4407,VALID,142,VALID,0.851953,
2010-09-02, 02:34:04,VALID,1008.97,VALID,0,VALID,103.504,VALID,0.105969,VALID,23.4602,VALID,132,VALID,0.919141,
2010-09-02, 02:35:04,VALID,1008.96,VALID,0,VALID,103.504,VALID,0,VALID,23.4407,VALID,133,VALID,0.753906,
2010-09-02, 02:36:04,VALID,1008.95,VALID,0,VALID,103.489,VALID,0,VALID,23.4194,VALID,119,VALID,0.744922,
2010-09-02, 02:37:04,VALID,1008.94,VALID,0,VALID,103.481,VALID,0,VALID,23.4602,VALID,122,VALID,0.554688,
2010-09-02, 02:38:04,VALID,1008.92,VALID,0,VALID,103.497,VALID,0,VALID,23.4407,VALID,116,VALID,1.01211,
2010-09-02, 02:39:04,VALID,1008.9,VALID,0,VALID,103.504,VALID,0.105969,VALID,23.4407,VALID,116,VALID,0.423438,
2010-09-02, 02:40:04,VALID,1008.89,VALID,0,VALID,103.512,VALID,0,VALID,23.4407,VALID,141,VALID,0.454297,
2010-09-02, 02:41:04,VALID,1008.91,VALID,0,VALID,103.489,VALID,0.105969,VALID,23.4194,VALID,135,VALID,1.05039,
2010-09-02, 02:42:04,VALID,1008.95,VALID,0,VALID,103.481,VALID,0.105969,VALID,23.4407,VALID,139,VALID,1.48125,
2010-09-02, 02:43:04,VALID,1008.94,VALID,0,VALID,103.489,VALID,0.105969,VALID,23.4407,VALID,126,VALID,1.10898,
2010-09-02, 02:44:04,VALID,1008.9,VALID,0,VALID,103.481,VALID,0.105969,VALID,23.4194,VALID,121,VALID,0.958203,
2010-09-02, 02:45:04,VALID,1008.85,VALID,0,VALID,103.489,VALID,0.105969,VALID,23.4194,VALID,132,VALID,0.960547,
2010-09-02, 02:46:04,VALID,1008.86,VALID,0,VALID,103.466,VALID,0.105969,VALID,23.4,VALID,137,VALID,0.891797,
2010-09-02, 02:47:04,VALID,1008.84,VALID,0,VALID,103.497,VALID,0.105969,VALID,23.4,VALID,138,VALID,1.62305,
2010-09-02, 02:48:04,VALID,1008.86,VALID,0,VALID,103.489,VALID,0,VALID,23.4,VALID,135,VALID,1.56016,
2010-09-02, 02:49:04,VALID,1008.82,VALID,0,VALID,103.504,VALID,0,VALID,23.4212,VALID,116,VALID,1.23828,
2010-09-02, 02:50:04,VALID,1008.79,VALID,0,VALID,103.474,VALID,0,VALID,23.4212,VALID,139,VALID,0.791406,
2010-09-02, 02:51:04,VALID,1008.78,VALID,0,VALID,103.489,VALID,0.105969,VALID,23.4407,VALID,91,VALID,0.591016,
2010-09-02, 02:52:04,VALID,1008.81,VALID,0,VALID,103.474,VALID,0.105969,VALID,23.4194,VALID,107,VALID,1.28203,
2010-09-02, 02:53:04,VALID,1008.83,VALID,0,VALID,103.481,VALID,0,VALID,23.4407,VALID,134,VALID,1.26563,
2010-09-02, 02:54:04,VALID,1008.83,VALID,0,VALID,103.489,VALID,0,VALID,23.4389,VALID,128,VALID,1.19766,
2010-09-02, 02:55:04,VALID,1008.83,VALID,0,VALID,103.466,VALID,0,VALID,23.4389,VALID,105,VALID,0.810938,
2010-09-02, 02:56:04,VALID,1008.82,VALID,0,VALID,103.481,VALID,0,VALID,23.4389,VALID,98,VALID,0.958594,
2010-09-02, 02:57:04,VALID,1008.82,VALID,0,VALID,103.489,VALID,0,VALID,23.4389,VALID,94,VALID,1.26328,
2010-09-02, 02:58:04,VALID,1008.81,VALID,0,VALID,103.489,VALID,0,VALID,23.4389,VALID,102,VALID,0.979688,
2010-09-02, 02:59:04,VALID,1008.82,VALID,0,VALID,103.466,VALID,0.105969,VALID,23.4584,VALID,114,VALID,0.534766,
2010-09-02, 03:00:04,VALID,1008.83,VALID,0,VALID,103.459,VALID,0,VALID,23.4584,VALID,162,VALID,0.518359,
2010-09-02, 03:01:04,VALID,1008.84,VALID,0,VALID,103.481,VALID,0.105969,VALID,23.4797,VALID,141,VALID,0.396484,
2010-09-02, 03:02:04,VALID,1008.81,VALID,0,VALID,103.481,VALID,0,VALID,23.4797,VALID,159,VALID,0.707422,
2010-09-02, 03:03:04,VALID,1008.83,VALID,0,VALID,103.451,VALID,0.105969,VALID,23.4797,VALID,141,VALID,0.772266,
2010-09-02, 03:04:04,VALID,1008.84,VALID,0,VALID,103.451,VALID,0.105969,VALID,23.4584,VALID,124,VALID,0.283594,
2010-09-02, 03:05:04,VALID,1008.81,VALID,0,VALID,103.459,VALID,0.105969,VALID,23.4797,VALID,111,VALID,0.136328,
2010-09-02, 03:06:04,VALID,1008.8,VALID,0,VALID,103.474,VALID,0.105969,VALID,23.4779,VALID,113,VALID,0.323047,
2010-09-02, 03:07:04,VALID,1008.78,VALID,0,VALID,103.481,VALID,0.105969,VALID,23.4797,VALID,112,VALID,0.348437,
2010-09-02, 03:08:04,VALID,1008.82,VALID,0,VALID,103.474,VALID,0,VALID,23.4992,VALID,68,VALID,1.00234,
2010-09-02, 03:09:04,VALID,1008.79,VALID,0,VALID,103.466,VALID,0.105969,VALID,23.4992,VALID,84,VALID,1.05195,
2010-09-02, 03:10:04,VALID,1008.78,VALID,0,VALID,103.443,VALID,0.105969,VALID,23.4974,VALID,99,VALID,0.847266,
2010-09-02, 03:11:04,VALID,1008.77,VALID,0,VALID,103.428,VALID,0.105969,VALID,23.5169,VALID,87,VALID,0.663672,
2010-09-02, 03:12:04,VALID,1008.72,VALID,0,VALID,103.42,VALID,0,VALID,23.5381,VALID,73,VALID,0.739062,
2010-09-02, 03:13:04,VALID,1008.68,VALID,0,VALID,103.405,VALID,0,VALID,23.4974,VALID,86,VALID,1.36875,
2010-09-02, 03:14:04,VALID,1008.66,VALID,0,VALID,103.405,VALID,0.105969,VALID,23.5169,VALID,87,VALID,1.10625,
2010-09-02, 03:15:04,VALID,1008.64,VALID,0,VALID,103.39,VALID,0,VALID,23.5381,VALID,73,VALID,0.777344,
2010-09-02, 03:16:04,VALID,1008.63,VALID,0,VALID,103.367,VALID,0.105969,VALID,23.5169,VALID,87,VALID,0.771094,
2010-09-02, 03:17:04,VALID,1008.64,VALID,0,VALID,103.337,VALID,0.105969,VALID,23.5186,VALID,105,VALID,0.942969,
2010-09-02, 03:18:04,VALID,1008.66,VALID,0,VALID,103.337,VALID,0.105969,VALID,23.4974,VALID,95,VALID,0.732422,
2010-09-02, 03:19:04,VALID,1008.66,VALID,0,VALID,103.359,VALID,0.105969,VALID,23.4974,VALID,88,VALID,0.591016,
2010-09-02, 03:20:04,VALID,1008.69,VALID,0,VALID,103.344,VALID,0.105969,VALID,23.5186,VALID,94,VALID,1.02617,
2010-09-02, 03:21:04,VALID,1008.71,VALID,0,VALID,103.367,VALID,0,VALID,23.5009,VALID,91,VALID,1.12773,
2010-09-02, 03:22:04,VALID,1008.73,VALID,0,VALID,103.337,VALID,0,VALID,23.4992,VALID,100,VALID,0.909766,
2010-09-02, 03:23:04,VALID,1008.74,VALID,0,VALID,103.375,VALID,0,VALID,23.4797,VALID,102,VALID,1.11563,
2010-09-02, 03:24:04,VALID,1008.76,VALID,0,VALID,103.352,VALID,0,VALID,23.4992,VALID,102,VALID,1.25195,
2010-09-02, 03:25:04,VALID,1008.77,VALID,0,VALID,103.367,VALID,0,VALID,23.4992,VALID,119,VALID,0.9375,
2010-09-02, 03:26:04,VALID,1008.77,VALID,0,VALID,103.367,VALID,0,VALID,23.5186,VALID,120,VALID,1.39453,
2010-09-02, 03:27:04,VALID,1008.73,VALID,0,VALID,103.382,VALID,0,VALID,23.5186,VALID,120,VALID,1.31836,
2010-09-02, 03:28:04,VALID,1008.72,VALID,0,VALID,103.367,VALID,0,VALID,23.5204,VALID,93,VALID,1.11563,
2010-09-02, 03:29:04,VALID,1008.71,VALID,0,VALID,103.359,VALID,0,VALID,23.5009,VALID,90,VALID,1.02656,
2010-09-02, 03:30:04,VALID,1008.68,VALID,0,VALID,103.344,VALID,0,VALID,23.5009,VALID,70,VALID,0.866406,
2010-09-02, 03:31:04,VALID,1008.64,VALID,0,VALID,103.367,VALID,0,VALID,23.4797,VALID,59,VALID,0.393359,
2010-09-02, 03:32:04,VALID,1008.64,VALID,0,VALID,103.382,VALID,0,VALID,23.5009,VALID,60,VALID,0.998047,
2010-09-02, 03:33:04,VALID,1008.66,VALID,0,VALID,103.359,VALID,0,VALID,23.4797,VALID,36,VALID,0.793359,
2010-09-02, 03:34:04,VALID,1008.66,VALID,0,VALID,103.375,VALID,0,VALID,23.4602,VALID,99,VALID,1.16133,
2010-09-02, 03:35:04,VALID,1008.69,VALID,0,VALID,103.367,VALID,0,VALID,23.4602,VALID,88,VALID,0.726953,
2010-09-02, 03:36:04,VALID,1008.69,VALID,0,VALID,103.375,VALID,0,VALID,23.4602,VALID,92,VALID,0.947656,
2010-09-02, 03:37:04,VALID,1008.73,VALID,0,VALID,103.375,VALID,0,VALID,23.4407,VALID,78,VALID,0.594141,
2010-09-02, 03:38:04,VALID,1008.75,VALID,0,VALID,103.375,VALID,0,VALID,23.4407,VALID,84,VALID,0.703125,
2010-09-02, 03:39:04,VALID,1008.74,VALID,0,VALID,103.359,VALID,0,VALID,23.4425,VALID,83,VALID,0.654688,
2010-09-02, 03:40:04,VALID,1008.76,VALID,0,VALID,103.375,VALID,0,VALID,23.4425,VALID,73,VALID,0.709766,
2010-09-02, 03:41:04,VALID,1008.76,VALID,0,VALID,103.398,VALID,0,VALID,23.4017,VALID,101,VALID,0.701953,
2010-09-02, 03:42:04,VALID,1008.72,VALID,0,VALID,103.405,VALID,0,VALID,23.4017,VALID,57,VALID,0.998438,